Weather History for Taunton, MA

Change the Weather History Date:

Thursday, April 3, 2014

  Actual Average Record
Temperature  
Mean Temperature 44 °F -  
Max Temperature 62 °F 55 °F 77 °F (1967)
Min Temperature 27 °F 32 °F 23 °F (1978)
Degree Days  
Heating Degree Days 21    
Moisture  
Dew Point 26 °F    
Average Humidity 66    
Maximum Humidity 92    
Minimum Humidity 21    
Precipitation  
Precipitation 0.00 in - - ()
Sea Level Pressure  
Sea Level Pressure 30.06 in    
Wind  
Wind Speed 2 mph (NE)    
Max Wind Speed 12 mph    
Max Gust Speed 18 mph    
Visibility 8 miles    
Events      
Averages and records for this station are not official NWS values.
T = Trace of Precipitation, MM = Missing Value Source: NWS Daily Summary

Daily Weather History Graph

Daily Weather History Graph

Search for Another Location

Airport:

Trip Planner

Search our weather history database for the weather conditions in past years. The results will help you decide how hot, cold, wet, or windy it might be!

Date:

Astronomy

Apr. 03, 2014 Rise Set
Actual Time 6:23 AM EDT 7:11 PM EDT
Civil Twilight 5:55 AM EDT 7:40 PM EDT
Nautical Twilight 5:21 AM EDT 8:13 PM EDT
Astronomical Twilight 4:47 AM EDT 8:48 PM EDT
Moon 8:47 AM EDT (4/3) 11:31 PM EDT (4/3)
Length of Visible Light 13h 44m
Length of Day
12h 48m
Waxing Crescent, 17% of the Moon is Illuminated
Apr 3
Waxing Crescent
Apr 7
First Quarter
Apr 15
Full
Apr 22
Last Quarter
Apr 29
New

Hourly Weather History & Observations

Time (EDT) Temp. Windchill Dew Point Humidity Pressure Visibility Wind Dir Wind Speed Gust Speed Precip Events Conditions
12:52 AM 30.9 °F - 28.9 °F 92% 30.07 in 8.0 mi Calm Calm - N/A   Clear
1:52 AM 30.0 °F - 28.0 °F 92% 30.06 in 10.0 mi Calm Calm - N/A   Clear
2:16 AM 30.9 °F - 28.0 °F 89% 30.06 in 1.8 mi Calm Calm - N/A   Clear
2:26 AM 28.9 °F - 27.0 °F 92% 30.05 in 3.0 mi Calm Calm - N/A   Clear
2:42 AM 30.0 °F - 27.0 °F 88% 30.05 in 1.8 mi Calm Calm - N/A   Clear
3:10 AM 28.9 °F - 26.1 °F 89% 30.05 in 3.0 mi Calm Calm - N/A   Clear
3:36 AM 28.9 °F - 26.1 °F 89% 30.05 in 2.5 mi Calm Calm - N/A   Clear
3:44 AM 28.9 °F - 26.1 °F 89% 30.05 in 10.0 mi Calm Calm - N/A   Clear
3:52 AM 28.0 °F - 25.0 °F 88% 30.05 in 9.0 mi Calm Calm - N/A   Clear
4:52 AM 27.0 °F - 25.0 °F 92% 30.05 in 2.5 mi Calm Calm - N/A   Clear
5:00 AM 28.0 °F - 24.1 °F 85% 30.05 in 10.0 mi Calm Calm - N/A   Clear
5:14 AM 28.0 °F - 24.1 °F 85% 30.05 in 1.5 mi Calm Calm - N/A   Clear
5:24 AM 27.0 °F - 24.1 °F 89% 30.05 in 3.0 mi Calm Calm - N/A   Clear
5:52 AM 27.0 °F - 24.1 °F 89% 30.05 in 10.0 mi Calm Calm - N/A   Clear
6:52 AM 28.9 °F - 25.0 °F 85% 30.07 in 9.0 mi Calm Calm - N/A   Clear
7:52 AM 37.0 °F - 34.0 °F 89% 30.08 in 9.0 mi Calm Calm - N/A   Clear
8:52 AM 46.9 °F - 27.0 °F 46% 30.09 in 10.0 mi NW 6.9 mph - N/A   Clear
9:52 AM 52.0 °F - 19.9 °F 28% 30.08 in 10.0 mi NW 10.4 mph - N/A   Clear
10:52 AM 55.0 °F - 19.0 °F 24% 30.08 in 10.0 mi WNW 10.4 mph - N/A   Clear
11:52 AM 57.0 °F - 18.0 °F 22% 30.07 in 10.0 mi NW 11.5 mph 18.4 mph N/A   Clear
12:52 PM 59.0 °F - 19.0 °F 21% 30.05 in 10.0 mi North 10.4 mph 16.1 mph N/A   Clear
1:52 PM 59.0 °F - 19.9 °F 22% 30.04 in 10.0 mi North - - N/A   Clear
2:52 PM 61.0 °F - 21.0 °F 21% 30.04 in 10.0 mi Variable 3.5 mph 18.4 mph N/A   Clear
3:52 PM 57.0 °F - 28.0 °F 33% 30.04 in 10.0 mi East 8.1 mph - N/A   Clear
4:52 PM 54.0 °F - 28.0 °F 37% 30.05 in 10.0 mi ESE 9.2 mph - N/A   Clear
5:52 PM 51.1 °F - 28.0 °F 41% 30.06 in 10.0 mi ESE 8.1 mph - N/A   Clear
6:52 PM 48.0 °F - 28.0 °F 46% 30.07 in 10.0 mi ESE 4.6 mph - N/A   Clear
7:52 PM 44.1 °F 41.5 °F 28.0 °F 53% 30.09 in 10.0 mi SE 4.6 mph - N/A   Clear
8:52 PM 37.0 °F - 28.0 °F 70% 30.10 in 10.0 mi Calm Calm - N/A   Clear
9:52 PM 35.1 °F - 28.0 °F 76% 30.11 in 10.0 mi Calm Calm - N/A   Clear
11:52 PM 32.0 °F - 28.9 °F 88% 30.13 in 10.0 mi Calm Calm - N/A   Clear